KC7RJK-2 Weather Reports


Display with metric or nautical units.
time (UTC)temp
F
wind
direction
speed
MPH
gust
MPH
rain 1hr
in
rain 24hr
in
rain mn
in
humidity
%
barometer
mb
20180420004344 65 56 3.0 10.0 0.00 0.00 0.00 44 1022.9
20180420003325 66 2 2.0 7.0 0.00 0.00 0.00 42 1023.0
20180420002324 65 17 5.0 10.0 0.00 0.00 0.00 43 1023.1
20180420001324 66 42 6.0 9.0 0.00 0.00 0.00 42 1023.2
20180420000344 66 30 6.0 7.0 0.00 0.00 0.00 42 1023.2
20180419235324 66 69 3.0 9.0 0.00 0.00 0.00 47 1023.2
20180419234324 66 27 4.0 8.0 0.00 0.00 0.00 43 1023.3
20180419233324 66 42 4.0 10.0 0.00 0.00 0.00 46 1023.3
20180419232324 65 31 5.0 8.0 0.00 0.00 0.00 42 1023.4
20180419231325 66 52 3.0 11.0 0.00 0.00 0.00 45 1023.5
20180419230325 66 2 3.0 9.0 0.00 0.00 0.00 45 1023.6
20180419225324 66 94 0.0 9.0 0.00 0.00 0.00 43 1023.6
20180419224344 66 27 7.0 9.0 0.00 0.00 0.00 43 1023.6
20180419223324 65 40 5.0 10.0 0.00 0.00 0.00 42 1023.6
20180419222324 65 360 4.0 9.0 0.00 0.00 0.00 41 1023.7
20180419221324 64 36 1.0 8.0 0.00 0.00 0.00 50 1023.8
20180419220324 64 7 1.0 9.0 0.00 0.00 0.00 47 1023.8
20180419215324 63 7 7.0 10.0 0.00 0.00 0.00 54 1023.8
20180419214324 64 347 5.0 9.0 0.00 0.00 0.00 46 1023.8
20180419213344 64 41 3.0 10.0 0.00 0.00 0.00 53 1023.8
20180419212324 64 53 5.0 10.0 0.00 0.00 0.00 51 1023.8
20180419211344 63 324 2.0 12.0 0.00 0.00 0.00 56 1023.9
20180419210324 63 354 6.0 10.0 0.00 0.00 0.00 58 1023.9
20180419205324 62 353 3.0 9.0 0.00 0.00 0.00 58 1023.9
20180419204324 61 318 11.0 12.0 0.00 0.00 0.00 57 1024.0
20180419203324 60 311 3.0 8.0 0.00 0.00 0.00 60 1024.0
20180419202324 60 30 2.0 8.0 0.00 0.00 0.00 61 1024.0
20180419201324 60 285 3.0 9.0 0.00 0.00 0.00 62 1024.1
20180419200324 60 12 3.0 10.0 0.00 0.00 0.00 64 1024.0
20180419195324 59 7 7.0 10.0 0.00 0.00 0.00 66 1024.0
20180419194324 60 7 5.0 9.0 0.00 0.00 0.00 61 1024.1
20180419193324 58 306 1.0 10.0 0.00 0.00 0.00 65 1024.2
20180419192324 57 321 8.0 10.0 0.00 0.00 0.00 66 1024.3
20180419191344 56 347 3.0 7.0 0.00 0.00 0.00 66 1024.2
20180419190344 57 17 4.0 10.0 0.00 0.00 0.00 66 1024.4
20180419185324 56 345 4.0 10.0 0.00 0.00 0.00 67 1024.5
20180419184324 55 52 1.0 11.0 0.00 0.00 0.00 74 1024.5
20180419183324 55 333 3.0 5.0 0.00 0.00 0.00 73 1024.5
20180419182324 54 73 1.0 6.0 0.00 0.00 0.00 74 1024.6
20180419181324 54 306 2.0 5.0 0.00 0.00 0.00 76 1024.6
20180419180344 52 292 2.0 5.0 0.00 0.00 0.00 76 1024.8
20180419175344 52 317 1.0 7.0 0.00 0.00 0.00 78 1024.8
20180419174328 52 302 2.0 6.0 0.00 0.00 0.00 76 1024.8
20180419173324 51 337 3.0 6.0 0.00 0.00 0.00 78 1024.7
20180419172324 50 12 1.0 3.0 0.00 0.00 0.00 80 1024.7
20180419171344 49 58 1.0 4.0 0.00 0.00 0.00 83 1024.7
20180419170324 49 38 0.0 3.0 0.00 0.00 0.00 82 1024.6
20180419165324 48 77 0.0 3.0 0.00 0.00 0.00 83 1024.5
20180419164324 47 127 0.0 2.0 0.00 0.00 0.00 87 1024.5
20180419163324 46 127 1.0 3.0 0.00 0.00 0.00 88 1024.5
20180419162344 44 128 0.0 2.0 0.00 0.00 0.00 91 1024.4
20180419161324 43 127 0.0 3.0 0.00 0.00 0.00 94 1024.2
20180419160324 42 127 0.0 3.0 0.00 0.00 0.00 96 1024.2
20180419155324 41 174 0.0 3.0 0.00 0.00 0.00 97 1024.2
20180419154324 40 177 0.0 3.0 0.00 0.00 0.00 96 1024.2
20180419153324 40 177 0.0 3.0 0.00 0.00 0.00 97 1023.9
20180419152324 40 174 1.0 3.0 0.00 0.00 0.00 97 1023.8
20180419151324 39 154 1.0 3.0 0.00 0.00 0.00 96 1023.6
20180419150324 39 155 2.0 5.0 0.00 0.00 0.00 97 1023.6
20180419145344 39 180 3.0 4.0 0.00 0.00 0.00 97 1023.4
20180419144324 39 127 2.0 6.0 0.00 0.00 0.00 97 1023.3
20180419143324 39 110 4.0 6.0 0.00 0.00 0.00 97 1023.1
20180419142324 38 176 3.0 6.0 0.00 0.00 0.00 96 1023.1
20180419141324 39 129 3.0 6.0 0.00 0.00 0.00 96 1023.1
20180419140344 39 132 3.0 7.0 0.00 0.00 0.00 97 1023.0
20180419135324 39 132 1.0 6.0 0.00 0.00 0.00 97 1022.8
20180419134324 38 129 3.0 6.0 0.00 0.00 0.00 97 1022.6
20180419133325 38 125 3.0 4.0 0.00 0.00 0.00 96 1022.6
20180419132344 38 133 2.0 6.0 0.00 0.00 0.00 96 1022.4
20180419131324 37 124 6.0 6.0 0.00 0.00 0.00 96 1022.3
20180419130324 37 166 2.0 3.0 0.00 0.00 0.00 96 1022.4
20180419125324 37 166 3.0 3.0 0.00 0.00 0.00 96 1022.2
20180419124324 37 144 3.0 6.0 0.00 0.00 0.00 96 1022.2
20180419123344 37 125 4.0 4.0 0.00 0.00 0.00 96 1022.2
20180419122324 36 135 2.0 4.0 0.00 0.00 0.00 96 1022.2
20180419121324 36 139 3.0 4.0 0.00 0.00 0.00 95 1022.1
20180419120344 36 142 0.0 3.0 0.00 0.00 0.00 95 1022.0
20180419115324 36 140 3.0 3.0 0.00 0.00 0.00 95 1022.0
20180419114324 36 133 0.0 0.0 0.00 0.00 0.00 95 1022.1
20180419113324 37 133 0.0 0.0 0.00 0.00 0.00 95 1022.1
20180419112324 37 133 0.0 2.0 0.00 0.00 0.00 95 1021.9
20180419111324 37 133 0.0 2.0 0.00 0.00 0.00 95 1021.8
20180419110324 38 133 0.0 3.0 0.00 0.00 0.00 95 1021.7
20180419105324 38 133 2.0 4.0 0.00 0.00 0.00 95 1021.5
20180419104344 38 144 3.0 4.0 0.00 0.00 0.00 95 1021.3
20180419103344 38 142 3.0 3.0 0.00 0.00 0.00 96 1021.3
20180419102324 38 152 3.0 3.0 0.00 0.00 0.00 95 1021.4
20180419101324 38 152 1.0 5.0 0.00 0.00 0.00 95 1021.2
20180419100324 38 148 2.0 3.0 0.00 0.00 0.00 95 1021.2
20180419095324 38 156 1.0 3.0 0.00 0.00 0.00 94 1021.2
20180419094344 39 156 0.0 3.0 0.00 0.00 0.00 94 1021.2
20180419093324 39 156 2.0 3.0 0.00 0.00 0.00 95 1021.0
20180419092324 39 158 0.0 3.0 0.00 0.00 0.00 95 1021.1
20180419091324 40 158 0.0 3.0 0.00 0.00 0.00 95 1021.1
20180419090345 40 169 1.0 4.0 0.00 0.00 0.00 95 1021.1
20180419085344 40 148 3.0 4.0 0.00 0.00 0.00 94 1021.1
20180419084324 40 147 0.0 3.0 0.00 0.00 0.00 94 1021.1
20180419083324 40 146 2.0 3.0 0.00 0.00 0.00 94 1021.1
20180419082324 40 146 2.0 5.0 0.00 0.00 0.00 94 1021.0
20180419081324 40 142 2.0 5.0 0.00 0.00 0.00 94 1020.8
20180419080325 41 133 3.0 6.0 0.00 0.00 0.00 95 1020.8
20180419075324 40 148 3.0 4.0 0.00 0.00 0.00 94 1020.9
20180419074344 40 130 4.0 4.0 0.00 0.00 0.00 94 1020.8
20180419073324 40 144 3.0 4.0 0.00 0.00 0.00 94 1020.8
20180419072343 40 185 2.0 3.0 0.00 0.00 0.00 93 1020.7
20180419071324 40 185 0.0 3.0 0.00 0.00 0.00 93 1020.7
20180419070343 40 185 2.0 3.0 0.00 0.00 0.00 93 1020.7
20180419065323 40 185 1.0 3.0 0.00 0.00 0.00 92 1020.6
20180419064324 41 185 0.0 3.0 0.00 0.00 0.00 92 1020.5
20180419063324 41 185 1.0 2.0 0.00 0.00 0.00 92 1020.4
20180419062324 41 186 0.0 0.0 0.00 0.00 0.00 91 1020.4
20180419061324 42 185 0.0 0.0 0.00 0.00 0.00 91 1020.4
20180419060324 42 185 0.0 0.0 0.00 0.00 0.00 91 1020.3
20180419055323 42 185 0.0 0.0 0.00 0.00 0.00 89 1020.2
20180419054323 43 185 0.0 0.0 0.00 0.00 0.00 89 1020.2
20180419053344 43 186 0.0 0.0 0.00 0.00 0.00 87 1020.2
20180419052343 44 185 0.0 0.0 0.00 0.00 0.00 87 1020.1
20180419051324 44 185 0.0 2.0 0.00 0.00 0.00 87 1020.1
20180419050324 45 186 0.0 2.0 0.00 0.00 0.00 85 1020.0
20180419045343 45 186 0.0 0.0 0.00 0.00 0.00 85 1019.9
20180419044343 46 186 0.0 2.0 0.00 0.00 0.00 84 1019.9
20180419043323 46 186 1.0 3.0 0.00 0.00 0.00 83 1019.8
20180419042343 46 186 2.0 3.0 0.00 0.00 0.00 82 1019.8
20180419041323 47 185 1.0 3.0 0.00 0.00 0.00 81 1019.7
20180419040324 47 231 3.0 4.0 0.00 0.00 0.00 81 1019.6
20180419035323 48 112 1.0 2.0 0.00 0.00 0.00 79 1019.5
20180419034323 49 112 2.0 2.0 0.00 0.00 0.00 77 1019.4
20180419033323 50 112 1.0 2.0 0.00 0.00 0.00 76 1019.3
20180419032323 50 112 0.0 2.0 0.00 0.00 0.00 74 1019.3
20180419031323 51 356 0.0 3.0 0.00 0.00 0.00 73 1019.2
20180419030323 52 312 1.0 1.0 0.00 0.00 0.00 72 1019.1
20180419025323 52 312 0.0 3.0 0.00 0.00 0.00 71 1019.1
20180419024323 52 324 2.0 3.0 0.00 0.01 0.00 69 1019.1
20180419023323 53 338 0.0 3.0 0.00 0.01 0.00 68 1019.0
20180419022323 53 357 2.0 3.0 0.00 0.01 0.00 68 1018.9
20180419021323 54 83 0.0 3.0 0.00 0.01 0.00 65 1018.9
20180419020323 55 76 0.0 3.0 0.00 0.01 0.00 63 1018.8
20180419015343 57 75 1.0 5.0 0.00 0.01 0.00 61 1018.8
20180419014343 57 71 2.0 6.0 0.00 0.01 0.00 60 1018.8
20180419013323 57 82 0.0 8.0 0.00 0.01 0.00 60 1018.6
20180419012323 57 44 3.0 11.0 0.00 0.01 0.00 61 1018.5
20180419011323 57 40 3.0 10.0 0.00 0.01 0.00 61 1018.4
20180419010324 57 24 2.0 8.0 0.00 0.01 0.00 59 1018.3
20180419005323 57 25 3.0 8.0 0.00 0.01 0.00 58 1018.3